Orlando International, FL

2:50 PM EDT on September 26, 2017 (GMT -0400)
Orlando International

Weather History for KMCO - March, 2012

Change the Weather History Date:

Saturday, March 10, 2012

  Actual Average Record
Temperature  
Mean Temperature 74 °F 66 °F  
Max Temperature 82 °F 77 °F 93 °F (1925)
Min Temperature 66 °F 55 °F 32 °F (1932)
Degree Days  
Heating Degree Days 0 2  
Month to date heating degree days 8 28  
Since 1 July heating degree days 309 527  
Cooling Degree Days 9 4  
Month to date cooling degree days 65 31  
Year to date cooling degree days 206 135  
Growing Degree Days 22 (Base 50)    
Moisture  
Dew Point 65 °F    
Average Humidity 79    
Maximum Humidity 100    
Minimum Humidity 58    
Precipitation  
Precipitation T in 0.11 in 1.92 in (1924)
Month to date precipitation 0.29 1.07  
Year to date precipitation 3.56 5.80  
Sea Level Pressure  
Sea Level Pressure 30.18 in    
Wind  
Wind Speed 11 mph (NNE)    
Max Wind Speed 23 mph    
Max Gust Speed 26 mph    
Visibility 10 miles    
Events Rain    
T = Trace of Precipitation, MM = Missing Value Source: NWS Daily Summary

Daily Weather History Graph

Daily Weather History Graph

Search for Another Location

Airport or City:

Trip Planner

Search our weather history database for the weather conditions in past years. The results will help you decide how hot, cold, wet, or windy it might be!

Date:

Astronomy

Mar. 10, 2012 Rise Set
Actual Time 6:39 AM EST 6:31 PM EST
Civil Twilight 6:16 AM EST 6:54 PM EST
Nautical Twilight 5:49 AM EST 7:22 PM EST
Astronomical Twilight 5:21 AM EST 7:49 PM EST
Moon 9:19 PM EST (3/10) 7:52 AM EST (3/10)
Length of Visible Light 12h 38m
Length of Day
11h 51m
Waning Gibbous, 93% of the Moon is Illuminated
Mar 10
Waning Gibbous
Mar 14
Last Quarter
Mar 22
New
Mar 30
First Quarter
Apr 6
Full

Hourly Weather History & Observations

Time (EST) Temp. Dew Point Humidity Pressure Visibility Wind Dir Wind Speed Gust Speed Precip Events Conditions
12:53 AM 68.0 °F 66.0 °F 93% 30.15 in 10.0 mi WNW 6.9 mph - N/A   Mostly Cloudy
1:42 AM 69.8 °F 66.2 °F 88% 30.13 in 10.0 mi West 4.6 mph - N/A   Mostly Cloudy
1:53 AM 69.1 °F 66.0 °F 90% 30.13 in 10.0 mi Calm Calm - N/A   Mostly Cloudy
2:00 AM 69.8 °F 66.2 °F 88% 30.13 in 10.0 mi Calm Calm - N/A   Mostly Cloudy
2:53 AM 66.9 °F 66.0 °F 97% 30.12 in 9.0 mi South 3.5 mph - N/A   Mostly Cloudy
3:53 AM 69.1 °F 66.0 °F 90% 30.12 in 10.0 mi NNW 5.8 mph - N/A   Overcast
4:53 AM 69.1 °F 66.0 °F 90% 30.13 in 10.0 mi North 8.1 mph - N/A   Overcast
5:02 AM 69.8 °F 66.2 °F 88% 30.13 in 10.0 mi North 10.4 mph - N/A   Overcast
5:53 AM 68.0 °F 64.9 °F 90% 30.15 in 10.0 mi NNE 11.5 mph - N/A   Overcast
6:22 AM 68.0 °F 64.4 °F 88% 30.16 in 10.0 mi NNE 8.1 mph - N/A   Overcast
6:53 AM 68.0 °F 64.0 °F 87% 30.17 in 10.0 mi NNE 9.2 mph - N/A   Overcast
7:01 AM 68.0 °F 64.4 °F 88% 30.17 in 10.0 mi NNE 10.4 mph - N/A   Overcast
7:40 AM 68.0 °F 64.4 °F 88% 30.19 in 10.0 mi NNE 11.5 mph - N/A   Mostly Cloudy
7:53 AM 68.0 °F 64.0 °F 87% 30.19 in 10.0 mi NNE 10.4 mph - N/A   Overcast
8:53 AM 70.0 °F 64.0 °F 81% 30.20 in 10.0 mi NNE 12.7 mph - N/A   Overcast
9:25 AM 71.6 °F 64.4 °F 78% 30.21 in 10.0 mi NNE 13.8 mph - N/A   Overcast
9:53 AM 72.0 °F 64.9 °F 78% 30.22 in 10.0 mi NE 12.7 mph - N/A   Overcast
10:34 AM 73.4 °F 64.4 °F 73% 30.23 in 10.0 mi NNE 12.7 mph - N/A   Overcast
10:53 AM 75.0 °F 64.9 °F 71% 30.22 in 10.0 mi NNE 10.4 mph - N/A   Mostly Cloudy
11:53 AM 75.2 °F 64.4 °F 69% 30.22 in 10.0 mi North 10.4 mph - N/A   Mostly Cloudy
12:53 PM 79.0 °F 63.0 °F 58% 30.19 in 10.0 mi NNE 11.5 mph - N/A   Mostly Cloudy
1:53 PM 79.0 °F 63.0 °F 58% 30.17 in 10.0 mi North 15.0 mph - N/A   Mostly Cloudy
2:53 PM 79.0 °F 64.9 °F 62% 30.17 in 10.0 mi NE 16.1 mph 23.0 mph N/A   Partly Cloudy
3:53 PM 77.0 °F 64.0 °F 64% 30.17 in 10.0 mi NNE 16.1 mph - 0.00 in   Mostly Cloudy
4:53 PM 73.0 °F 63.0 °F 71% 30.18 in 10.0 mi NE 15.0 mph - N/A   Mostly Cloudy
5:53 PM 71.1 °F 64.9 °F 81% 30.18 in 10.0 mi NE 15.0 mph 23.0 mph N/A   Mostly Cloudy
6:53 PM 70.0 °F 64.9 °F 84% 30.20 in 10.0 mi NE 13.8 mph - N/A   Mostly Cloudy
7:53 PM 70.0 °F 64.9 °F 84% 30.21 in 10.0 mi NE 10.4 mph - N/A   Mostly Cloudy
8:53 PM 70.0 °F 66.0 °F 87% 30.22 in 10.0 mi NE 13.8 mph - N/A   Mostly Cloudy
9:53 PM 69.1 °F 66.0 °F 90% 30.25 in 10.0 mi NNE 9.2 mph - 0.00 in   Mostly Cloudy
10:32 PM 69.8 °F 64.4 °F 83% 30.25 in 10.0 mi NNE 9.2 mph - N/A   Overcast
11:28 PM 68.0 °F 66.2 °F 94% 30.25 in 10.0 mi NNE 9.2 mph - 0.00 in Rain Light Rain
11:53 PM 68.0 °F 66.0 °F 93% 30.25 in 10.0 mi NE 6.9 mph - 0.00 in   Overcast